Grant, New York
Current Conditions -  °F | °C
As of 8:53 PM on Saturday 20 Dec 2014 (Local Time) from KRME Reporting Station
Overcast Overcast  
Wind Chill: 25°   Ceiling: 2700
Heat Index: 25°   Visibility: 10mi
Dew Point: 19°   Wind: 3mph
Humidity: 78%   Direction: 90°E
Pressure: 30.32"   Gusts: NA
Location:  43.4607°N, 74.933°W
Report Text: KRME 210153Z 09003KT 10SM OVC027 M04/M07 A3032 RMK AO2 SLP272 T10391072
Loading
Personal Weather Stations






























Interactive Weather Map New forecast layout! Learn more

10-Day Weather Forecast

Advertisements
Track Severe Weather on mobile